Year,Month,Day,Hour,Minute,Value (Times are PST for temperature in C)
2016,08,06,00,00,13.20
2016,08,06,00,01,13.20
2016,08,06,00,02,13.20
2016,08,06,00,03,13.20
2016,08,06,00,04,13.20
2016,08,06,00,05,13.20
2016,08,06,00,06,13.10
2016,08,06,00,07,13.10
2016,08,06,00,08,13.10
2016,08,06,00,09,13.10
2016,08,06,00,10,13.10
2016,08,06,00,11,13.10
2016,08,06,00,12,13.10
2016,08,06,00,13,13.10
2016,08,06,00,14,13.10
2016,08,06,00,15,13.10
2016,08,06,00,16,13.10
2016,08,06,00,17,13.10
2016,08,06,00,18,13.10
2016,08,06,00,19,13.10
2016,08,06,00,20,13.10
2016,08,06,00,21,13.10
2016,08,06,00,22,13.10
2016,08,06,00,23,13.10
2016,08,06,00,24,13.10
2016,08,06,00,25,13.10
2016,08,06,00,26,13.10
2016,08,06,00,27,13.10
2016,08,06,00,28,13.10
2016,08,06,00,29,13.10
2016,08,06,00,30,13.10
2016,08,06,00,31,13.10
2016,08,06,00,32,13.10
2016,08,06,00,33,13.10
2016,08,06,00,34,13.10
2016,08,06,00,35,13.10
2016,08,06,00,36,13.10
2016,08,06,00,37,13.10
2016,08,06,00,38,13.10
2016,08,06,00,39,13.10
2016,08,06,00,40,13.10
2016,08,06,00,41,13.10
2016,08,06,00,42,13.10
2016,08,06,00,43,13.10
2016,08,06,00,44,13.10
2016,08,06,00,45,13.10
2016,08,06,00,46,13.10
2016,08,06,00,47,13.10
2016,08,06,00,48,13.10
2016,08,06,00,49,13.10
2016,08,06,00,50,13.10
2016,08,06,00,51,13.10
2016,08,06,00,52,13.10
2016,08,06,00,53,13.10
2016,08,06,00,54,13.10
2016,08,06,00,55,13.10
2016,08,06,00,56,13.10
2016,08,06,00,57,13.10
2016,08,06,00,58,13.10
2016,08,06,00,59,13.10
2016,08,06,01,00,13.10
2016,08,06,01,01,13.10
2016,08,06,01,02,13.10
2016,08,06,01,03,13.10
2016,08,06,01,04,13.10
2016,08,06,01,05,13.10
2016,08,06,01,06,13.10
2016,08,06,01,07,13.20
2016,08,06,01,08,13.20
2016,08,06,01,09,13.20
2016,08,06,01,10,13.20
2016,08,06,01,11,13.20
2016,08,06,01,12,13.20
2016,08,06,01,13,13.20
2016,08,06,01,14,13.20
2016,08,06,01,15,13.20
2016,08,06,01,16,13.20
2016,08,06,01,17,13.20
2016,08,06,01,18,13.20
2016,08,06,01,19,13.20
2016,08,06,01,20,13.20
2016,08,06,01,21,13.20
2016,08,06,01,22,13.20
2016,08,06,01,23,13.20
2016,08,06,01,24,13.20
2016,08,06,01,25,13.20
2016,08,06,01,26,13.20
2016,08,06,01,27,13.20
2016,08,06,01,28,13.30
2016,08,06,01,29,13.30
2016,08,06,01,30,13.30
2016,08,06,01,31,13.30
2016,08,06,01,32,13.30
2016,08,06,01,33,13.30
2016,08,06,01,34,13.30
2016,08,06,01,35,13.30
2016,08,06,01,36,13.30
2016,08,06,01,37,13.30
2016,08,06,01,38,13.30
2016,08,06,01,39,13.30
2016,08,06,01,40,13.30
2016,08,06,01,41,13.30
2016,08,06,01,42,13.30
2016,08,06,01,43,13.30
2016,08,06,01,44,13.30
2016,08,06,01,45,13.30
2016,08,06,01,46,13.30
2016,08,06,01,47,13.30
2016,08,06,01,48,13.30
2016,08,06,01,49,13.30
2016,08,06,01,50,13.30
2016,08,06,01,51,13.30
2016,08,06,01,52,13.30
2016,08,06,01,53,13.30
2016,08,06,01,54,13.30
2016,08,06,01,55,13.30
2016,08,06,01,56,13.30
2016,08,06,01,57,13.30
2016,08,06,01,58,13.40
2016,08,06,01,59,13.40
2016,08,06,02,00,13.40
2016,08,06,02,01,13.40
2016,08,06,02,02,13.40
2016,08,06,02,03,13.40
2016,08,06,02,04,13.40
2016,08,06,02,05,13.40
2016,08,06,02,06,13.40
2016,08,06,02,07,13.40
2016,08,06,02,08,13.40
2016,08,06,02,09,13.40
2016,08,06,02,10,13.40
2016,08,06,02,11,13.40
2016,08,06,02,12,13.40
2016,08,06,02,13,13.40
2016,08,06,02,14,13.40
2016,08,06,02,15,13.40
2016,08,06,02,16,13.40
2016,08,06,02,17,13.40
2016,08,06,02,18,13.40
2016,08,06,02,19,13.40
2016,08,06,02,20,13.40
2016,08,06,02,21,13.40
2016,08,06,02,22,13.40
2016,08,06,02,23,13.40
2016,08,06,02,24,13.40
2016,08,06,02,25,13.40
2016,08,06,02,26,13.40
2016,08,06,02,27,13.40
2016,08,06,02,28,13.40
2016,08,06,02,29,13.40
2016,08,06,02,30,13.40
2016,08,06,02,31,13.40
2016,08,06,02,32,13.40
2016,08,06,02,33,13.40
2016,08,06,02,34,13.40
2016,08,06,02,35,13.40
2016,08,06,02,36,13.40
2016,08,06,02,37,13.40
2016,08,06,02,38,13.40
2016,08,06,02,39,13.40
2016,08,06,02,40,13.40
2016,08,06,02,41,13.40
2016,08,06,02,42,13.40
2016,08,06,02,43,13.40
2016,08,06,02,44,13.40
2016,08,06,02,45,13.40
2016,08,06,02,46,13.40
2016,08,06,02,47,13.40
2016,08,06,02,48,13.40
2016,08,06,02,49,13.40
2016,08,06,02,50,13.40
2016,08,06,02,51,13.40
2016,08,06,02,52,13.40
2016,08,06,02,53,13.40
2016,08,06,02,54,13.40
2016,08,06,02,55,13.40
2016,08,06,02,56,13.40
2016,08,06,02,57,13.40
2016,08,06,02,58,13.40
2016,08,06,02,59,13.40
2016,08,06,03,00,13.40
2016,08,06,03,01,13.40
2016,08,06,03,02,13.40
2016,08,06,03,03,13.40
2016,08,06,03,04,13.30
2016,08,06,03,05,13.30
2016,08,06,03,06,13.30
2016,08,06,03,07,13.30
2016,08,06,03,08,13.30
2016,08,06,03,09,13.30
2016,08,06,03,10,13.30
2016,08,06,03,11,13.30
2016,08,06,03,12,13.30
2016,08,06,03,13,13.40
2016,08,06,03,14,13.40
2016,08,06,03,15,13.40
2016,08,06,03,16,13.40
2016,08,06,03,17,13.40
2016,08,06,03,18,13.40
2016,08,06,03,19,13.40
2016,08,06,03,20,13.40
2016,08,06,03,21,13.40
2016,08,06,03,22,13.40
2016,08,06,03,23,13.40
2016,08,06,03,24,13.40
2016,08,06,03,25,13.40
2016,08,06,03,26,13.40
2016,08,06,03,27,13.40
2016,08,06,03,28,13.40
2016,08,06,03,29,13.40
2016,08,06,03,30,13.40
2016,08,06,03,31,13.40
2016,08,06,03,32,13.40
2016,08,06,03,33,13.40
2016,08,06,03,34,13.40
2016,08,06,03,35,13.40
2016,08,06,03,36,13.40
2016,08,06,03,37,13.40
2016,08,06,03,38,13.40
2016,08,06,03,39,13.40
2016,08,06,03,40,13.40
2016,08,06,03,41,13.40
2016,08,06,03,42,13.40
2016,08,06,03,43,13.40
2016,08,06,03,44,13.30
2016,08,06,03,45,13.40
2016,08,06,03,46,13.40
2016,08,06,03,47,13.40
2016,08,06,03,48,13.40
2016,08,06,03,49,13.40
2016,08,06,03,50,13.40
2016,08,06,03,51,13.40
2016,08,06,03,52,13.40
2016,08,06,03,53,13.40
2016,08,06,03,54,13.40
2016,08,06,03,55,13.40
2016,08,06,03,56,13.40
2016,08,06,03,57,13.40
2016,08,06,03,58,13.40
2016,08,06,03,59,13.40
2016,08,06,04,00,13.40
2016,08,06,04,01,13.40
2016,08,06,04,02,13.40
2016,08,06,04,03,13.40
2016,08,06,04,04,13.40
2016,08,06,04,05,13.40
2016,08,06,04,06,13.40
2016,08,06,04,07,13.40
2016,08,06,04,08,13.40
2016,08,06,04,09,13.40
2016,08,06,04,10,13.30
2016,08,06,04,11,13.30
2016,08,06,04,12,13.40
2016,08,06,04,13,13.30
2016,08,06,04,14,13.30
2016,08,06,04,15,13.30
2016,08,06,04,16,13.30
2016,08,06,04,17,13.30
2016,08,06,04,18,13.30
2016,08,06,04,19,13.30
2016,08,06,04,20,13.30
2016,08,06,04,21,13.40
2016,08,06,04,22,13.40
2016,08,06,04,23,13.30
2016,08,06,04,24,13.40
2016,08,06,04,25,13.40
2016,08,06,04,26,13.40
2016,08,06,04,27,13.40
2016,08,06,04,28,13.40
2016,08,06,04,29,13.40
2016,08,06,04,30,13.30
2016,08,06,04,31,13.30
2016,08,06,04,32,13.30
2016,08,06,04,33,13.40
2016,08,06,04,34,13.40
2016,08,06,04,35,13.40
2016,08,06,04,36,13.40
2016,08,06,04,37,13.40
2016,08,06,04,38,13.40
2016,08,06,04,39,13.40
2016,08,06,04,40,13.30
2016,08,06,04,41,13.30
2016,08,06,04,42,13.30
2016,08,06,04,43,13.30
2016,08,06,04,44,13.30
2016,08,06,04,45,13.30
2016,08,06,04,46,13.30
2016,08,06,04,47,13.30
2016,08,06,04,48,13.30
2016,08,06,04,49,13.30
2016,08,06,04,50,13.30
2016,08,06,04,51,13.30
2016,08,06,04,52,13.30
2016,08,06,04,53,13.30
2016,08,06,04,54,13.30
2016,08,06,04,55,13.30
2016,08,06,04,56,13.30
2016,08,06,04,57,13.30
2016,08,06,04,58,13.30
2016,08,06,04,59,13.30
2016,08,06,05,00,13.20
2016,08,06,05,01,13.30
2016,08,06,05,02,13.20
2016,08,06,05,03,13.20
2016,08,06,05,04,13.20
2016,08,06,05,05,13.20
2016,08,06,05,06,13.20
2016,08,06,05,07,13.20
2016,08,06,05,08,13.20
2016,08,06,05,09,13.20
2016,08,06,05,10,13.20
2016,08,06,05,11,13.20
2016,08,06,05,12,13.20
2016,08,06,05,13,13.20
2016,08,06,05,14,13.30
2016,08,06,05,15,13.30
2016,08,06,05,16,13.30
2016,08,06,05,17,13.30
2016,08,06,05,18,13.30
2016,08,06,05,19,13.30
2016,08,06,05,20,13.30
2016,08,06,05,21,13.30
2016,08,06,05,22,13.30
2016,08,06,05,23,13.30
2016,08,06,05,24,13.30
2016,08,06,05,25,13.30
2016,08,06,05,26,13.30
2016,08,06,05,27,13.30
2016,08,06,05,28,13.30
2016,08,06,05,29,13.30
2016,08,06,05,30,13.30
2016,08,06,05,31,13.30
2016,08,06,05,32,13.30
2016,08,06,05,33,13.20
2016,08,06,05,34,13.20
2016,08,06,05,35,13.20
2016,08,06,05,36,13.20
2016,08,06,05,37,13.20
2016,08,06,05,38,13.20
2016,08,06,05,39,13.20
2016,08,06,05,40,13.20
2016,08,06,05,41,13.20
2016,08,06,05,42,13.20
2016,08,06,05,43,13.20
2016,08,06,05,44,13.20
2016,08,06,05,45,13.20
2016,08,06,05,46,13.20
2016,08,06,05,47,13.10
2016,08,06,05,48,13.10
2016,08,06,05,49,13.10
2016,08,06,05,50,13.10
2016,08,06,05,51,13.10
2016,08,06,05,52,13.10
2016,08,06,05,53,13.10
2016,08,06,05,54,13.10
2016,08,06,05,55,13.10
2016,08,06,05,56,13.10
2016,08,06,05,57,13.10
2016,08,06,05,58,13.10
2016,08,06,05,59,13.10
2016,08,06,06,00,13.10
2016,08,06,06,01,13.10
2016,08,06,06,02,13.10
2016,08,06,06,03,13.10
2016,08,06,06,04,13.10
2016,08,06,06,05,13.10
2016,08,06,06,06,13.10
2016,08,06,06,07,13.10
2016,08,06,06,08,13.10
2016,08,06,06,09,13.00
2016,08,06,06,10,13.00
2016,08,06,06,11,13.00
2016,08,06,06,12,13.00
2016,08,06,06,13,13.00
2016,08,06,06,14,13.00
2016,08,06,06,15,13.00
2016,08,06,06,16,13.00
2016,08,06,06,17,13.00
2016,08,06,06,18,13.00
2016,08,06,06,19,13.00
2016,08,06,06,20,13.00
2016,08,06,06,21,13.10
2016,08,06,06,22,13.10
2016,08,06,06,23,13.10
2016,08,06,06,24,13.10
2016,08,06,06,25,13.10
2016,08,06,06,26,13.10
2016,08,06,06,27,13.10
2016,08,06,06,28,13.10
2016,08,06,06,29,13.10
2016,08,06,06,30,13.10
2016,08,06,06,31,13.10
2016,08,06,06,32,13.10
2016,08,06,06,33,13.10
2016,08,06,06,34,13.10
2016,08,06,06,35,13.10
2016,08,06,06,36,13.10
2016,08,06,06,37,13.10
2016,08,06,06,38,13.10
2016,08,06,06,39,13.10
2016,08,06,06,40,13.10
2016,08,06,06,41,13.10
2016,08,06,06,42,13.10
2016,08,06,06,43,13.10
2016,08,06,06,44,13.10
2016,08,06,06,45,13.10
2016,08,06,06,46,13.10
2016,08,06,06,47,13.10
2016,08,06,06,48,13.10
2016,08,06,06,49,13.10
2016,08,06,06,50,13.10
2016,08,06,06,51,13.10
2016,08,06,06,52,13.10
2016,08,06,06,53,13.10
2016,08,06,06,54,13.10
2016,08,06,06,55,13.20
2016,08,06,06,56,13.20
2016,08,06,06,57,13.20
2016,08,06,06,58,13.20
2016,08,06,06,59,13.20
2016,08,06,07,00,13.20
2016,08,06,07,01,13.20
2016,08,06,07,02,13.20
2016,08,06,07,03,13.20
2016,08,06,07,04,13.20
2016,08,06,07,05,13.20
2016,08,06,07,06,13.20
2016,08,06,07,07,13.20
2016,08,06,07,08,13.20
2016,08,06,07,09,13.20
2016,08,06,07,10,13.20
2016,08,06,07,11,13.20
2016,08,06,07,12,13.20
2016,08,06,07,13,13.20
2016,08,06,07,14,13.10
2016,08,06,07,15,13.10
2016,08,06,07,16,13.10
2016,08,06,07,17,13.10
2016,08,06,07,18,13.10
2016,08,06,07,19,13.10
2016,08,06,07,20,13.10
2016,08,06,07,21,13.10
2016,08,06,07,22,13.10
2016,08,06,07,23,13.10
2016,08,06,07,24,13.10
2016,08,06,07,25,13.10
2016,08,06,07,26,13.10
2016,08,06,07,27,13.10
2016,08,06,07,28,13.10
2016,08,06,07,29,13.10
2016,08,06,07,30,13.10
2016,08,06,07,31,13.10
2016,08,06,07,32,13.10
2016,08,06,07,33,13.10
2016,08,06,07,34,13.10
2016,08,06,07,35,13.10
2016,08,06,07,36,13.10
2016,08,06,07,37,13.10
2016,08,06,07,38,13.20
2016,08,06,07,39,13.20
2016,08,06,07,40,13.20
2016,08,06,07,41,13.20
2016,08,06,07,42,13.20
2016,08,06,07,43,13.20
2016,08,06,07,44,13.20
2016,08,06,07,45,13.20
2016,08,06,07,46,13.20
2016,08,06,07,47,13.20
2016,08,06,07,48,13.20
2016,08,06,07,49,13.20
2016,08,06,07,50,13.20
2016,08,06,07,51,13.20
2016,08,06,07,52,13.30
2016,08,06,07,53,13.30
2016,08,06,07,54,13.30
2016,08,06,07,55,13.30
2016,08,06,07,56,13.30
2016,08,06,07,57,13.20
2016,08,06,07,58,13.30
2016,08,06,07,59,13.20
2016,08,06,08,00,13.20
2016,08,06,08,01,13.30
2016,08,06,08,02,13.20
2016,08,06,08,03,13.20
2016,08,06,08,04,13.30
2016,08,06,08,05,13.30
2016,08,06,08,06,13.30
2016,08,06,08,07,13.30
2016,08,06,08,08,13.30
2016,08,06,08,09,13.30
2016,08,06,08,10,13.30
2016,08,06,08,11,13.30
2016,08,06,08,12,13.30
2016,08,06,08,13,13.30
2016,08,06,08,14,13.30
2016,08,06,08,15,13.30
2016,08,06,08,16,13.30
2016,08,06,08,17,13.30
2016,08,06,08,18,13.30
2016,08,06,08,19,13.30
2016,08,06,08,20,13.30
2016,08,06,08,21,13.30
2016,08,06,08,22,13.30
2016,08,06,08,23,13.30
2016,08,06,08,24,13.30
2016,08,06,08,25,13.30
2016,08,06,08,26,13.30
2016,08,06,08,27,13.30
2016,08,06,08,28,13.30
2016,08,06,08,29,13.30
2016,08,06,08,30,13.30
2016,08,06,08,31,13.30
2016,08,06,08,32,13.30
2016,08,06,08,33,13.30
2016,08,06,08,34,13.30
2016,08,06,08,35,13.30
2016,08,06,08,36,13.30
2016,08,06,08,37,13.30
2016,08,06,08,38,13.30
2016,08,06,08,39,13.30
2016,08,06,08,40,13.30
2016,08,06,08,41,13.30
2016,08,06,08,42,13.30
2016,08,06,08,43,13.30
2016,08,06,08,44,13.30
2016,08,06,08,45,13.30
2016,08,06,08,46,13.30
2016,08,06,08,47,13.30
2016,08,06,08,48,13.30
2016,08,06,08,49,13.30
2016,08,06,08,50,13.30
2016,08,06,08,51,13.30
2016,08,06,08,52,13.30
2016,08,06,08,53,13.30
2016,08,06,08,54,13.30
2016,08,06,08,55,13.30
2016,08,06,08,56,13.30
2016,08,06,08,57,13.30
2016,08,06,08,58,13.30
2016,08,06,08,59,13.30
2016,08,06,09,00,13.20
2016,08,06,09,01,13.20
2016,08,06,09,02,13.20
2016,08,06,09,03,13.20
2016,08,06,09,04,13.20
2016,08,06,09,05,13.20
2016,08,06,09,06,13.30
2016,08,06,09,07,13.30
2016,08,06,09,08,13.30
2016,08,06,09,09,13.30
2016,08,06,09,10,13.30
2016,08,06,09,11,13.30
2016,08,06,09,12,13.30
2016,08,06,09,13,13.30
2016,08,06,09,14,13.30
2016,08,06,09,15,13.30
2016,08,06,09,16,13.30
2016,08,06,09,17,13.30
2016,08,06,09,18,13.30
2016,08,06,09,19,13.30
2016,08,06,09,20,13.30
2016,08,06,09,21,13.40
2016,08,06,09,22,13.30
2016,08,06,09,23,13.30
2016,08,06,09,24,13.30
2016,08,06,09,25,13.30
2016,08,06,09,26,13.30
2016,08,06,09,27,13.30
2016,08,06,09,28,13.30
2016,08,06,09,29,13.30
2016,08,06,09,30,13.30
2016,08,06,09,31,13.30
2016,08,06,09,32,13.30
2016,08,06,09,33,13.30
2016,08,06,09,34,13.30
2016,08,06,09,35,13.30
2016,08,06,09,36,13.30
2016,08,06,09,37,13.30
2016,08,06,09,38,13.20
2016,08,06,09,39,13.20
2016,08,06,09,40,13.20
2016,08,06,09,41,13.20
2016,08,06,09,42,13.20
2016,08,06,09,43,13.20
2016,08,06,09,44,13.20
2016,08,06,09,45,13.20
2016,08,06,09,46,13.20
2016,08,06,09,47,13.20
2016,08,06,09,48,13.20
2016,08,06,09,49,13.20
2016,08,06,09,50,13.20
2016,08,06,09,51,13.20
2016,08,06,09,52,13.20
2016,08,06,09,53,13.20
2016,08,06,09,54,13.30
2016,08,06,09,55,13.30
2016,08,06,09,56,13.30
2016,08,06,09,57,13.30
2016,08,06,09,58,13.30
2016,08,06,09,59,13.30
2016,08,06,10,00,13.30
2016,08,06,10,01,13.40
2016,08,06,10,02,13.40
2016,08,06,10,03,13.40
2016,08,06,10,04,13.40
2016,08,06,10,05,13.40
2016,08,06,10,06,13.40
2016,08,06,10,07,13.40
2016,08,06,10,08,13.40
2016,08,06,10,09,13.40
2016,08,06,10,10,13.40
2016,08,06,10,11,13.40
2016,08,06,10,12,13.40
2016,08,06,10,13,13.40
2016,08,06,10,14,13.50
2016,08,06,10,15,13.50
2016,08,06,10,16,13.50
2016,08,06,10,17,13.50
2016,08,06,10,18,13.50
2016,08,06,10,19,13.60
2016,08,06,10,20,13.60
2016,08,06,10,21,13.60
2016,08,06,10,22,13.60
2016,08,06,10,23,13.60
2016,08,06,10,24,13.60
2016,08,06,10,25,13.60
2016,08,06,10,26,13.60
2016,08,06,10,27,13.60
2016,08,06,10,28,13.70
2016,08,06,10,29,13.70
2016,08,06,10,30,13.80
2016,08,06,10,31,13.80
2016,08,06,10,32,13.80
2016,08,06,10,33,13.70
2016,08,06,10,34,13.70
2016,08,06,10,35,13.70
2016,08,06,10,36,13.70
2016,08,06,10,37,13.80
2016,08,06,10,38,13.80
2016,08,06,10,39,13.80
2016,08,06,10,40,13.80
2016,08,06,10,41,13.70
2016,08,06,10,42,13.70
2016,08,06,10,43,13.70
2016,08,06,10,44,13.70
2016,08,06,10,45,13.70
2016,08,06,10,46,13.70
2016,08,06,10,47,13.70
2016,08,06,10,48,13.70
2016,08,06,10,49,13.70
2016,08,06,10,50,13.70
2016,08,06,10,51,13.70
2016,08,06,10,52,13.70
2016,08,06,10,53,13.80
2016,08,06,10,54,13.80
2016,08,06,10,55,13.80
2016,08,06,10,56,13.80
2016,08,06,10,57,13.80
2016,08,06,10,58,13.80
2016,08,06,10,59,13.80
2016,08,06,11,00,13.90
2016,08,06,11,01,13.90
2016,08,06,11,02,13.90
2016,08,06,11,03,13.90
2016,08,06,11,04,13.90
2016,08,06,11,05,13.90
2016,08,06,11,06,14.00
2016,08,06,11,07,14.10
2016,08,06,11,08,14.10
2016,08,06,11,09,14.10
2016,08,06,11,10,14.10
2016,08,06,11,11,14.10
2016,08,06,11,12,14.10
2016,08,06,11,13,14.10
2016,08,06,11,14,14.10
2016,08,06,11,15,14.10
2016,08,06,11,16,14.10
2016,08,06,11,17,14.00
2016,08,06,11,18,14.00
2016,08,06,11,19,14.00
2016,08,06,11,20,14.00
2016,08,06,11,21,14.00
2016,08,06,11,22,14.00
2016,08,06,11,23,14.00
2016,08,06,11,24,14.00
2016,08,06,11,25,14.10
2016,08,06,11,26,14.10
2016,08,06,11,27,14.10
2016,08,06,11,28,14.00
2016,08,06,11,29,14.00
2016,08,06,11,30,14.00
2016,08,06,11,31,14.00
2016,08,06,11,32,14.00
2016,08,06,11,33,13.90
2016,08,06,11,34,14.00
2016,08,06,11,35,14.00
2016,08,06,11,36,14.00
2016,08,06,11,37,14.00
2016,08,06,11,38,14.00
2016,08,06,11,39,13.90
2016,08,06,11,40,13.90
2016,08,06,11,41,13.90
2016,08,06,11,42,13.90
2016,08,06,11,43,14.00
2016,08,06,11,44,14.00
2016,08,06,11,45,14.00
2016,08,06,11,46,14.00
2016,08,06,11,47,14.00
2016,08,06,11,48,14.10
2016,08,06,11,49,14.10
2016,08,06,11,50,14.10
2016,08,06,11,51,14.10
2016,08,06,11,52,14.20
2016,08,06,11,53,14.20
2016,08,06,11,54,14.20
2016,08,06,11,55,14.20
2016,08,06,11,56,14.20
2016,08,06,11,57,14.20
2016,08,06,11,58,14.30
2016,08,06,11,59,14.30
2016,08,06,12,00,14.30
2016,08,06,12,01,14.30
2016,08,06,12,02,14.40
2016,08,06,12,03,14.30
2016,08,06,12,04,14.30
2016,08,06,12,05,14.30
2016,08,06,12,06,14.30
2016,08,06,12,07,14.20
2016,08,06,12,08,14.20
2016,08,06,12,09,14.20
2016,08,06,12,10,14.20
2016,08,06,12,11,14.20
2016,08,06,12,12,14.20
2016,08,06,12,13,14.20
2016,08,06,12,14,14.20
2016,08,06,12,15,14.20
2016,08,06,12,16,14.30
2016,08,06,12,17,14.30
2016,08,06,12,18,14.30
2016,08,06,12,19,14.30
2016,08,06,12,20,14.30
2016,08,06,12,21,14.30
2016,08,06,12,22,14.20
2016,08,06,12,23,14.20
2016,08,06,12,24,14.20
2016,08,06,12,25,14.20
2016,08,06,12,26,14.20
2016,08,06,12,27,14.20
2016,08,06,12,28,14.20
2016,08,06,12,29,14.30
2016,08,06,12,30,14.30
2016,08,06,12,31,14.40
2016,08,06,12,32,14.40
2016,08,06,12,33,14.40
2016,08,06,12,34,14.50
2016,08,06,12,35,14.50
2016,08,06,12,36,14.60
2016,08,06,12,37,14.60
2016,08,06,12,38,14.60
2016,08,06,12,39,14.60
2016,08,06,12,40,14.60
2016,08,06,12,41,14.70
2016,08,06,12,42,14.70
2016,08,06,12,43,14.70
2016,08,06,12,44,14.70
2016,08,06,12,45,14.70
2016,08,06,12,46,14.70
2016,08,06,12,47,14.70
2016,08,06,12,48,14.70
2016,08,06,12,49,14.70
2016,08,06,12,50,14.70
2016,08,06,12,51,14.70
2016,08,06,12,52,14.70
2016,08,06,12,53,14.70
2016,08,06,12,54,14.70
2016,08,06,12,55,14.70
2016,08,06,12,56,14.80
2016,08,06,12,57,14.80
2016,08,06,12,58,14.80
2016,08,06,12,59,14.80
2016,08,06,13,00,14.90
2016,08,06,13,01,14.90
2016,08,06,13,02,14.90
2016,08,06,13,03,14.90
2016,08,06,13,04,14.90
2016,08,06,13,05,14.90
2016,08,06,13,06,14.90
2016,08,06,13,07,15.00
2016,08,06,13,08,15.00
2016,08,06,13,09,15.00
2016,08,06,13,10,15.00
2016,08,06,13,11,15.10
2016,08,06,13,12,15.10
2016,08,06,13,13,15.10
2016,08,06,13,14,15.10
2016,08,06,13,15,15.10
2016,08,06,13,16,15.10
2016,08,06,13,17,15.20
2016,08,06,13,18,15.20
2016,08,06,13,19,15.20
2016,08,06,13,20,15.30
2016,08,06,13,21,15.30
2016,08,06,13,22,15.30
2016,08,06,13,23,15.30
2016,08,06,13,24,15.30
2016,08,06,13,25,15.40
2016,08,06,13,26,15.30
2016,08,06,13,27,15.30
2016,08,06,13,28,15.30
2016,08,06,13,29,15.30
2016,08,06,13,30,15.30
2016,08,06,13,31,15.30
2016,08,06,13,32,15.20
2016,08,06,13,33,15.20
2016,08,06,13,34,15.20
2016,08,06,13,35,15.10
2016,08,06,13,36,15.10
2016,08,06,13,37,15.10
2016,08,06,13,38,15.10
2016,08,06,13,39,15.10
2016,08,06,13,40,15.10
2016,08,06,13,41,15.10
2016,08,06,13,42,15.20
2016,08,06,13,43,15.30
2016,08,06,13,44,15.30
2016,08,06,13,45,15.40
2016,08,06,13,46,15.40
2016,08,06,13,47,15.50
2016,08,06,13,48,15.50
2016,08,06,13,49,15.60
2016,08,06,13,50,15.60
2016,08,06,13,51,15.70
2016,08,06,13,52,15.80
2016,08,06,13,53,15.80
2016,08,06,13,54,15.80
2016,08,06,13,55,15.90
2016,08,06,13,56,15.90
2016,08,06,13,57,16.00
2016,08,06,13,58,16.10
2016,08,06,13,59,16.20
2016,08,06,14,00,16.30
2016,08,06,14,01,16.50
2016,08,06,14,02,16.60
2016,08,06,14,03,16.70
2016,08,06,14,04,16.80
2016,08,06,14,05,17.00
2016,08,06,14,06,17.10
2016,08,06,14,07,17.30
2016,08,06,14,08,17.30
2016,08,06,14,09,17.40
2016,08,06,14,10,17.40
2016,08,06,14,11,17.50
2016,08,06,14,12,17.60
2016,08,06,14,13,17.70
2016,08,06,14,14,17.70
2016,08,06,14,15,17.70
2016,08,06,14,16,17.60
2016,08,06,14,17,17.50
2016,08,06,14,18,17.30
2016,08,06,14,19,17.10
2016,08,06,14,20,17.00
2016,08,06,14,21,16.80
2016,08,06,14,22,16.70
2016,08,06,14,23,16.60
2016,08,06,14,24,16.40
2016,08,06,14,25,16.30
2016,08,06,14,26,16.30
2016,08,06,14,27,16.30
2016,08,06,14,28,16.30
2016,08,06,14,29,16.20
2016,08,06,14,30,16.10
2016,08,06,14,31,16.00
2016,08,06,14,32,15.90
2016,08,06,14,33,15.80
2016,08,06,14,34,15.70
2016,08,06,14,35,15.70
2016,08,06,14,36,15.60
2016,08,06,14,37,15.50
2016,08,06,14,38,15.50
2016,08,06,14,39,15.60
2016,08,06,14,40,15.60
2016,08,06,14,41,15.60
2016,08,06,14,42,15.60
2016,08,06,14,43,15.60
2016,08,06,14,44,15.60
2016,08,06,14,45,15.60
2016,08,06,14,46,15.60
2016,08,06,14,47,15.70
2016,08,06,14,48,15.70
2016,08,06,14,49,15.70
2016,08,06,14,50,15.80
2016,08,06,14,51,15.80
2016,08,06,14,52,15.80
2016,08,06,14,53,15.80
2016,08,06,14,54,15.90
2016,08,06,14,55,15.90
2016,08,06,14,56,16.00
2016,08,06,14,57,16.10
2016,08,06,14,58,16.20
2016,08,06,14,59,16.20
2016,08,06,15,00,16.30
2016,08,06,15,01,16.40
2016,08,06,15,02,16.40
2016,08,06,15,03,16.40
2016,08,06,15,04,16.40
2016,08,06,15,05,16.50
2016,08,06,15,06,16.60
2016,08,06,15,07,16.70
2016,08,06,15,08,16.70
2016,08,06,15,09,16.70
2016,08,06,15,10,16.70
2016,08,06,15,11,16.60
2016,08,06,15,12,16.60
2016,08,06,15,13,16.60
2016,08,06,15,14,16.60
2016,08,06,15,15,16.60
2016,08,06,15,16,16.60
2016,08,06,15,17,16.50
2016,08,06,15,18,16.50
2016,08,06,15,19,16.40
2016,08,06,15,20,16.40
2016,08,06,15,21,16.40
2016,08,06,15,22,16.40
2016,08,06,15,23,16.30
2016,08,06,15,24,16.30
2016,08,06,15,25,16.20
2016,08,06,15,26,16.20
2016,08,06,15,27,16.10
2016,08,06,15,28,16.00
2016,08,06,15,29,16.00
2016,08,06,15,30,16.00
2016,08,06,15,31,16.10
2016,08,06,15,32,16.10
2016,08,06,15,33,16.10
2016,08,06,15,34,16.20
2016,08,06,15,35,16.20
2016,08,06,15,36,16.30
2016,08,06,15,37,16.20
2016,08,06,15,38,16.20
2016,08,06,15,39,16.20
2016,08,06,15,40,16.20
2016,08,06,15,41,16.10
2016,08,06,15,42,16.10
2016,08,06,15,43,16.10
2016,08,06,15,44,16.00
2016,08,06,15,45,16.00
2016,08,06,15,46,16.00
2016,08,06,15,47,15.90
2016,08,06,15,48,15.90
2016,08,06,15,49,15.90
2016,08,06,15,50,15.90
2016,08,06,15,51,15.90
2016,08,06,15,52,16.00
2016,08,06,15,53,16.00
2016,08,06,15,54,16.00
2016,08,06,15,55,16.00
2016,08,06,15,56,16.00
2016,08,06,15,57,16.00
2016,08,06,15,58,16.10
2016,08,06,15,59,16.10
2016,08,06,16,00,16.20
2016,08,06,16,01,16.20
2016,08,06,16,02,16.30
2016,08,06,16,03,16.20
2016,08,06,16,04,16.20
2016,08,06,16,05,16.20
2016,08,06,16,06,16.20
2016,08,06,16,07,16.30
2016,08,06,16,08,16.30
2016,08,06,16,09,16.30
2016,08,06,16,10,16.30
2016,08,06,16,11,16.40
2016,08,06,16,12,16.40
2016,08,06,16,13,16.40
2016,08,06,16,14,16.50
2016,08,06,16,15,16.50
2016,08,06,16,16,16.60
2016,08,06,16,17,16.60
2016,08,06,16,18,16.70
2016,08,06,16,19,16.70
2016,08,06,16,20,16.80
2016,08,06,16,21,16.90
2016,08,06,16,22,16.90
2016,08,06,16,23,17.00
2016,08,06,16,24,17.00
2016,08,06,16,25,17.00
2016,08,06,16,26,17.10
2016,08,06,16,27,17.10
2016,08,06,16,28,17.20
2016,08,06,16,29,17.20
2016,08,06,16,30,17.20
2016,08,06,16,31,17.30
2016,08,06,16,32,17.30
2016,08,06,16,33,17.40
2016,08,06,16,34,17.40
2016,08,06,16,35,17.40
2016,08,06,16,36,17.40
2016,08,06,16,37,17.30
2016,08,06,16,38,17.30
2016,08,06,16,39,17.40
2016,08,06,16,40,17.40
2016,08,06,16,41,17.30
2016,08,06,16,42,17.30
2016,08,06,16,43,17.20
2016,08,06,16,44,17.20
2016,08,06,16,45,17.10
2016,08,06,16,46,17.10
2016,08,06,16,47,17.10
2016,08,06,16,48,17.00
2016,08,06,16,49,17.00
2016,08,06,16,50,16.90
2016,08,06,16,51,16.90
2016,08,06,16,52,16.80
2016,08,06,16,53,16.80
2016,08,06,16,54,16.80
2016,08,06,16,55,16.80
2016,08,06,16,56,16.80
2016,08,06,16,57,16.80
2016,08,06,16,58,16.80
2016,08,06,16,59,16.80
2016,08,06,17,00,16.80
2016,08,06,17,01,16.80
2016,08,06,17,02,16.70
2016,08,06,17,03,16.80
2016,08,06,17,04,16.80
2016,08,06,17,05,16.80
2016,08,06,17,06,16.90
2016,08,06,17,07,17.00
2016,08,06,17,08,17.10
2016,08,06,17,09,17.10
2016,08,06,17,10,17.20
2016,08,06,17,11,17.20
2016,08,06,17,12,17.20
2016,08,06,17,13,17.20
2016,08,06,17,14,17.30
2016,08,06,17,15,17.30
2016,08,06,17,16,17.30
2016,08,06,17,17,17.40
2016,08,06,17,18,17.40
2016,08,06,17,19,17.40